QPF
0.00 0.00 0.00 0.00 0.00 0.00 0.00 0.00 0.00 0.00 0.00 0.00 0.00 0.00 0.00 0.00 0.00 0.00 0.00 0.00 0.00 0.00 0.00 0.00 0.00 0.00 0.00 0.00 0.00 0.00 0.00 0.00 0.00 0.00 0.00 0.00 0.00 0.00
0.00 0.00 0.00 0.00 0.00 0.00 0.00 0.00 0.00 0.00 0.00 0.00 0.00 0.00 0.00 0.00 0.00 0.00 0.00 0.00 0.00 0.00 0.00 0.00 0.00 0.00 0.00 0.00 0.00 0.00 0.00 0.00 0.00 0.00 0.00 0.00 0.00 0.00
0.00 0.00 0.00 0.00 0.00 0.00 0.00 0.00 0.00 0.00 0.00 0.00 0.00 0.00 0.00 0.00 0.00 0.00 0.00 0.00 0.00 0.00 0.00 0.00 0.00 0.00 0.00 0.00 0.00 0.00 0.00 0.00 0.00 0.00 0.00 0.00 0.00 0.00
0.00 0.00 0.00 0.00 0.00 0.00 0.00 0.00 0.00 0.00 0.00 0.00 0.00 0.00 0.00 0.00 0.00 0.00 0.00 0.00 0.00 0.00 0.00 0.00 0.00 0.00 0.00 0.00 0.00 0.00 0.00 0.00 0.00 0.00 0.00 0.00 0.00 0.00
0.00 0.00 0.00 0.00 0.00 0.00 0.00 0.00 0.00 0.00 0.00 0.00 0.00 0.00 0.00 0.00 0.00 0.00 0.00 0.00 0.00 0.00 0.00 0.00 0.00 0.00 0.00 0.00 0.00 0.00 0.00 0.00 0.00 0.00 0.00 0.00 0.00 0.00
0.00 0.00 0.00 0.00 0.00 0.00 0.00 0.00 0.00 0.00 0.00 0.00 0.00 0.00 0.00 0.00 0.00 0.00 0.00 0.00 0.00 0.00 0.00 0.00 0.00 0.00 0.00 0.00 0.00 0.00 0.00 0.00 0.00 0.00 0.00 0.00 0.00 0.00
0.00 0.00 0.00 0.00 0.00 0.00 0.00 0.00 0.00 0.00 0.00 0.00 0.00 0.00 0.00 0.00 0.00 0.00 0.00 0.00 0.00 0.00 0.00 0.00 0.00 0.00 0.00 0.00 0.00 0.00 0.00 0.00 0.00 0.00 0.00 0.00 0.00 0.00
0.00 0.00 0.00 0.00 0.00 0.00 0.00 0.00 0.00 0.00 0.00 0.00 0.00 0.00 0.00 0.00 0.00 0.00 0.00 0.00 0.00 0.00 0.00 0.00 0.00 0.00 0.00 0.00 0.00 0.00 0.00 0.00 0.00 0.00 0.00 0.00 0.00 0.00
0.00 0.00 0.00 0.00 0.00 0.00 0.00 0.00 0.00 0.00 0.01 0.00 0.00 0.00 0.00 0.00 0.00 0.00 0.00 0.00 0.00 0.00 0.00 0.00 0.00 0.00 0.00 0.00 0.00 0.00 0.00 0.00 0.00 0.00 0.00 0.00 0.00 0.00
0.00 0.00 0.00 0.00 0.00 0.00 0.00 0.00 0.00 0.00 0.00 0.00 0.00 0.00 0.00 0.00 0.00 0.00 0.00 0.00 0.00 0.00 0.00 0.00 0.00 0.00 0.00 0.00 0.00 0.00 0.00 0.00 0.00 0.00 0.00 0.00 0.00 0.00
0.00 0.00 0.00 0.00 0.00 0.00 0.00 0.00 0.00 0.00 0.00 0.00 0.00 0.00 0.00 0.01 0.02 0.01 0.00 0.00 0.00 0.00 0.00 0.00 0.00 0.00 0.00 0.00 0.00 0.00 0.00 0.00 0.00 0.00 0.00 0.00 0.00 0.00
0.00 0.00 0.00 0.00 0.00 0.00 0.00 0.00 0.00 0.00 0.00 0.00 0.00 0.00 0.00 0.00 0.00 0.00 0.00 0.00 0.00 0.00 0.00 0.00 0.00 0.00 0.00 0.00 0.00 0.00 0.00 0.00 0.00 0.00 0.00 0.00 0.00 0.00
0.00 0.00 0.00 0.00 0.00 0.00 0.00 0.00 0.01 0.01 0.00 0.00 0.00 0.00 0.00 0.00 0.00 0.00 0.00 0.01 0.01 0.01 0.01 0.01 0.00 0.00 0.00 0.00 0.00 0.00 0.00 0.00 0.00 0.00 0.00 0.00 0.00 0.00
0.00 0.00 0.00 0.00 0.00 0.00 0.00 0.01 0.02 0.03 0.01 0.00 0.01 0.01 0.01 0.00 0.00 0.00 0.00 0.00 0.01 0.00 0.00 0.00 0.00 0.00 0.00 0.00 0.00 0.00 0.00 0.00 0.00 0.00 0.00 0.00 0.00 0.00
0.00 0.00 0.00 0.00 0.00 0.00 0.02 0.04 0.04 0.02 0.01 0.01 0.01 0.00 0.00 0.00 0.00 0.00 0.00 0.00 0.00 0.00 0.00 0.00 0.00 0.00 0.00 0.01 0.00 0.00 0.00 0.00 0.00 0.00 0.00 0.00 0.00 0.00
0.00 0.00 0.00 0.00 0.00 0.00 0.01 0.01 0.00 0.00 0.01 0.00 0.00 0.00 0.00 0.00 0.00 0.00 0.00 0.00 0.00 0.00 0.00 0.00 0.00 0.00 0.00 0.00 0.00 0.00 0.00 0.00 0.00 0.00 0.00 0.00 0.00 0.00
0.00 0.00 0.00 0.00 0.00 0.00 0.00 0.00 0.00 0.00 0.00 0.00 0.00 0.00 0.00 0.00 0.00 0.00 0.00 0.00 0.00 0.00 0.00 0.00 0.00 0.00 0.00 0.00 0.00 0.00 0.00 0.00 0.00 0.00 0.00 0.00 0.00 0.00
0.01 0.00 0.00 0.00 0.00 0.00 0.00 0.00 0.00 0.00 0.00 0.00 0.00 0.00 0.00 0.00 0.00 0.00 0.00 0.00 0.00 0.00 0.00 0.00 0.00 0.00 0.00 0.00 0.00 0.00 0.00 0.00 0.00 0.00 0.00 0.00 0.00 0.00
0.01 0.00 0.00 0.00 0.00 0.00 0.00 0.00 0.00 0.00 0.00 0.00 0.00 0.00 0.00 0.00 0.00 0.00 0.00 0.00 0.00 0.00 0.00 0.00 0.00 0.00 0.00 0.00 0.00 0.00 0.00 0.00 0.00 0.00 0.00 0.00 0.00 0.00
0.00 0.00 0.00 0.00 0.00 0.00 0.00 0.00 0.00 0.00 0.00 0.00 0.00 0.00 0.00 0.00 0.00 0.00 0.00 0.00 0.00 0.00 0.00 0.00 0.00 0.00 0.00 0.00 0.00 0.00 0.00 0.00 0.00 0.00 0.00 0.00 0.00 0.00
0.00 0.00 0.00 0.00 0.00 0.00 0.00 0.00 0.00 0.00 0.00 0.00 0.00 0.00 0.00 0.00 0.00 0.00 0.00 0.00 0.00 0.00 0.00 0.00 0.00 0.00 0.00 0.00 0.00 0.00 0.00 0.00 0.00 0.00 0.00 0.00 0.00 0.00
0.00 0.00 0.00 0.00 0.00 0.00 0.00 0.00 0.00 0.00 0.00 0.00 0.00 0.00 0.00 0.00 0.00 0.00 0.00 0.00 0.00 0.00 0.00 0.00 0.00 0.00 0.00 0.00 0.00 0.00 0.00 0.00 0.00 0.00 0.00 0.00 0.00 0.00
0.00 0.00 0.00 0.00 0.00 0.00 0.00 0.00 0.00 0.00 0.00 0.00 0.00 0.00 0.00 0.00 0.00 0.00 0.00 0.00 0.00 0.00 0.00 0.00 0.00 0.00 0.00 0.00 0.00 0.00 0.00 0.00 0.00 0.00 0.00 0.00 0.00 0.00
MSLP
1032.75 1032.70 1032.76 1032.61 1032.51 1032.56 1032.44 1032.41 1032.34 1031.67 1031.07 1030.73 1030.55 1029.88 1029.71 1029.43 1029.23 1029.02 1029.03 1028.85 1028.46 1028.03 1027.58 1027.16 1026.74 1026.38 1025.99 1025.58 1025.27 1024.91 1024.48 1023.98 1023.54 1022.89 1022.40 1021.98 1021.43 1020.88
1032.48 1032.62 1032.60 1032.47 1032.33 1032.17 1032.10 1031.99 1031.91 1031.64 1030.81 1030.74 1030.46 1030.14 1029.73 1029.18 1028.86 1028.69 1028.55 1028.27 1028.09 1027.73 1027.23 1026.69 1026.36 1025.98 1025.61 1025.10 1024.72 1024.35 1024.01 1023.63 1023.24 1022.75 1022.21 1021.67 1021.08 1020.60
1032.41 1032.37 1032.27 1032.22 1032.03 1031.92 1031.78 1031.64 1031.57 1031.46 1030.68 1030.19 1030.06 1029.75 1029.43 1029.30 1028.74 1028.41 1028.14 1027.91 1027.54 1027.11 1026.70 1026.25 1025.77 1025.42 1025.02 1024.55 1024.23 1023.88 1023.55 1023.21 1022.81 1022.38 1021.93 1021.46 1020.86 1020.10
1032.08 1031.97 1031.80 1031.76 1031.56 1031.44 1031.35 1031.13 1031.04 1030.88 1030.59 1029.80 1029.73 1029.47 1029.11 1028.79 1028.47 1028.03 1027.57 1027.22 1026.87 1026.42 1025.91 1025.61 1024.99 1024.68 1024.44 1024.13 1023.76 1023.22 1022.94 1022.58 1022.24 1021.91 1021.53 1020.96 1020.46 1020.17
1031.73 1031.58 1031.41 1031.34 1031.20 1030.89 1030.80 1030.59 1030.50 1030.20 1029.97 1029.50 1029.13 1028.97 1028.59 1028.39 1027.84 1027.50 1027.04 1026.65 1026.20 1025.78 1025.42 1024.78 1024.48 1024.27 1024.05 1023.48 1022.98 1022.64 1022.36 1021.98 1021.61 1021.27 1021.03 1020.74 1020.39 1020.02
1031.07 1030.98 1030.86 1030.68 1030.54 1030.31 1030.10 1029.91 1029.80 1029.64 1029.45 1029.19 1028.71 1028.31 1028.04 1027.67 1027.40 1027.01 1026.46 1026.18 1025.86 1025.42 1025.09 1024.76 1024.28 1023.94 1023.31 1022.81 1022.46 1022.14 1021.79 1021.37 1021.02 1020.57 1020.27 1020.00 1019.66 1019.37
1030.37 1030.20 1030.03 1029.71 1029.30 1029.09 1028.78 1028.82 1028.90 1028.87 1028.66 1028.42 1027.99 1027.63 1027.26 1027.02 1026.73 1026.45 1026.07 1026.06 1025.50 1025.35 1025.03 1024.39 1023.79 1023.46 1022.88 1022.44 1022.03 1021.48 1021.15 1020.75 1020.24 1019.65 1019.35 1019.01 1018.75 1018.53
1029.51 1029.37 1029.26 1028.97 1028.74 1028.25 1027.73 1027.26 1027.10 1027.31 1027.17 1027.17 1026.82 1026.43 1026.23 1026.20 1025.99 1026.02 1025.81 1025.53 1024.84 1024.78 1024.27 1023.41 1023.29 1022.67 1022.29 1021.95 1021.36 1020.63 1020.10 1019.79 1019.24 1018.79 1018.39 1018.19 1017.73 1017.45
1028.56 1028.48 1028.31 1028.11 1027.98 1027.81 1027.49 1026.88 1026.37 1026.00 1025.75 1025.77 1025.57 1025.61 1025.49 1025.62 1025.58 1025.35 1024.96 1024.62 1023.98 1023.59 1023.42 1022.33 1022.35 1021.69 1021.32 1020.78 1020.21 1019.72 1019.43 1018.77 1018.31 1017.84 1017.49 1017.24 1016.72 1016.33
1027.63 1027.64 1027.59 1027.53 1027.57 1027.31 1026.80 1026.29 1025.91 1025.70 1025.55 1025.31 1025.01 1024.78 1024.70 1024.55 1024.48 1024.02 1023.57 1023.15 1022.64 1022.23 1022.16 1021.34 1021.18 1020.55 1020.22 1019.74 1019.21 1018.69 1018.31 1017.86 1017.45 1016.93 1016.65 1016.24 1015.73 1015.22
1026.64 1026.68 1026.72 1026.46 1026.42 1026.08 1025.59 1025.12 1024.81 1024.55 1024.42 1024.11 1023.69 1023.37 1023.11 1022.71 1022.59 1022.63 1022.24 1021.79 1021.36 1021.22 1021.09 1020.61 1020.04 1019.56 1019.21 1018.71 1018.24 1017.85 1017.37 1016.95 1016.69 1016.31 1015.73 1015.21 1014.71 1014.14
1025.57 1025.54 1025.48 1025.24 1025.03 1024.73 1024.32 1024.14 1023.77 1023.48 1023.44 1023.19 1022.97 1022.67 1022.31 1021.99 1021.65 1021.44 1021.28 1020.98 1020.59 1019.95 1019.73 1019.58 1018.99 1018.84 1018.07 1017.73 1017.35 1016.93 1016.61 1016.15 1015.68 1015.25 1014.85 1014.32 1013.70 1013.28
1024.50 1024.47 1024.49 1024.46 1024.06 1023.61 1023.05 1022.75 1022.59 1022.49 1022.15 1021.80 1021.54 1021.34 1021.18 1021.00 1020.85 1020.61 1020.22 1020.02 1019.47 1018.71 1018.62 1018.47 1018.18 1017.98 1017.53 1016.71 1016.29 1015.88 1015.77 1015.02 1014.66 1014.19 1013.78 1013.29 1012.81 1012.45
1023.41 1023.42 1023.37 1023.29 1022.88 1022.43 1021.90 1021.62 1021.21 1020.82 1020.63 1020.50 1020.42 1020.20 1020.03 1019.75 1019.60 1019.37 1019.00 1018.64 1018.31 1017.92 1017.80 1017.68 1017.43 1017.24 1016.60 1015.84 1015.09 1014.72 1014.24 1013.75 1013.61 1013.04 1012.58 1012.09 1011.61 1011.17
1022.27 1022.27 1022.03 1021.62 1021.28 1020.94 1020.74 1020.48 1020.28 1020.11 1019.91 1019.61 1019.34 1019.10 1018.99 1018.83 1018.62 1018.53 1018.31 1018.08 1017.71 1017.22 1016.90 1016.66 1016.41 1015.96 1015.64 1014.81 1014.02 1013.40 1012.97 1012.22 1012.27 1011.84 1011.35 1010.99 1010.49 1010.09
1021.69 1021.47 1021.23 1020.91 1020.51 1019.98 1019.76 1019.83 1019.63 1019.39 1019.19 1018.89 1018.69 1018.46 1018.39 1018.31 1018.11 1017.90 1017.57 1017.19 1016.79 1016.01 1015.71 1015.48 1015.21 1014.87 1014.21 1013.58 1012.93 1012.07 1011.84 1011.00 1010.79 1010.37 1010.09 1009.48 1008.92 1008.52
1021.16 1021.07 1020.86 1020.50 1020.12 1019.77 1019.43 1019.10 1018.74 1018.62 1018.43 1018.20 1018.07 1017.95 1017.75 1017.47 1017.10 1016.92 1016.63 1016.14 1015.72 1015.22 1014.62 1014.31 1013.93 1013.51 1012.93 1012.25 1011.42 1010.91 1010.19 1009.57 1009.15 1008.68 1008.75 1007.85 1007.16 1006.75
1019.36 1019.49 1019.53 1019.37 1019.08 1018.82 1018.51 1018.16 1017.90 1017.90 1017.97 1017.95 1017.85 1017.67 1017.34 1016.95 1016.47 1016.06 1015.77 1015.47 1015.00 1014.36 1013.82 1013.45 1012.94 1012.28 1011.45 1010.35 1010.21 1009.14 1008.51 1008.00 1007.63 1006.97 1006.87 1006.30 1005.05 1004.70
1017.75 1017.82 1017.95 1017.98 1017.99 1017.93 1018.11 1018.00 1017.94 1017.86 1017.86 1017.84 1017.70 1017.34 1016.92 1016.35 1015.83 1015.37 1014.96 1014.57 1013.95 1013.43 1012.85 1012.43 1011.96 1011.49 1010.23 1008.45 1007.26 1007.78 1006.85 1006.19 1005.89 1005.23 1004.91 1004.37 1003.20 1002.12
1017.50 1017.71 1017.84 1017.99 1018.23 1018.32 1018.26 1018.14 1018.07 1017.97 1017.88 1017.60 1017.24 1016.84 1016.37 1015.81 1015.17 1014.55 1013.99 1013.48 1012.99 1012.30 1011.65 1011.17 1010.66 1009.96 1009.02 1007.27 1005.73 1005.50 1005.93 1004.97 1004.47 1003.56 1002.98 1002.15 1000.91 1000.52
1017.51 1017.54 1017.58 1018.00 1018.44 1018.15 1018.04 1017.94 1017.87 1017.78 1017.51 1017.19 1016.78 1016.24 1015.63 1015.15 1014.34 1013.65 1012.98 1012.23 1011.59 1010.85 1010.06 1009.20 1008.31 1007.75 1006.85 1006.02 1004.56 1003.48 1002.97 1002.77 1002.24 1001.68 1001.09 1000.34 999.45 999.24
1017.61 1017.55 1017.34 1017.39 1017.51 1017.59 1017.63 1017.56 1017.44 1017.17 1016.80 1016.37 1015.84 1015.33 1014.71 1014.16 1013.35 1012.56 1011.85 1011.19 1010.40 1009.55 1008.43 1007.30 1006.54 1006.09 1005.47 1004.40 1002.64 1001.68 1000.99 1000.48 1000.10 999.44 998.84 998.30 997.71 996.51
1016.92 1016.87 1016.81 1016.80 1016.88 1016.95 1016.97 1016.92 1016.65 1016.20 1015.77 1015.30 1014.76 1014.12 1013.54 1012.84 1012.10 1011.32 1010.48 1009.66 1008.79 1007.79 1006.67 1005.49 1004.59 1003.92 1002.89 1002.04 1000.83 999.73 999.04 998.49 997.99 997.20 996.14 995.82 995.11 994.36
Thickness
5352 5352 5351 5351 5351 5350 5350 5351 5353 5360 5370 5373 5372 5377 5381 5385 5389 5390 5393 5395 5401 5406 5413 5421 5429 5437 5446 5454 5461 5468 5477 5486 5494 5505 5514 5522 5530 5539
5332 5330 5329 5330 5330 5330 5330 5330 5331 5334 5344 5345 5349 5352 5355 5360 5365 5367 5371 5373 5377 5382 5389 5397 5404 5412 5420 5431 5440 5448 5456 5465 5474 5484 5494 5504 5513 5522
5310 5310 5310 5309 5309 5309 5308 5308 5307 5307 5317 5325 5325 5328 5332 5334 5340 5342 5346 5350 5355 5359 5365 5372 5379 5387 5396 5406 5415 5425 5434 5443 5453 5463 5473 5483 5493 5505
5289 5289 5289 5287 5288 5287 5284 5285 5285 5285 5287 5298 5301 5303 5306 5308 5313 5319 5323 5326 5331 5337 5341 5346 5355 5363 5371 5379 5389 5400 5409 5420 5431 5440 5449 5465 5473 5481
5266 5266 5266 5263 5263 5263 5261 5261 5260 5263 5263 5269 5276 5277 5281 5281 5287 5291 5296 5299 5306 5312 5315 5322 5329 5336 5342 5353 5364 5374 5383 5395 5407 5415 5426 5437 5448 5458
5245 5244 5243 5242 5240 5239 5237 5236 5236 5236 5236 5237 5245 5251 5252 5256 5257 5259 5264 5267 5277 5279 5283 5291 5300 5307 5318 5327 5338 5346 5354 5366 5377 5389 5400 5412 5424 5435
5223 5221 5220 5219 5218 5216 5215 5213 5209 5207 5208 5209 5215 5220 5225 5227 5226 5226 5228 5231 5243 5243 5246 5258 5273 5280 5290 5295 5303 5314 5325 5337 5349 5363 5374 5386 5398 5411
5202 5200 5198 5196 5194 5193 5193 5193 5192 5189 5188 5185 5189 5194 5199 5198 5197 5191 5193 5197 5210 5208 5208 5233 5234 5249 5258 5263 5272 5284 5296 5307 5320 5333 5345 5356 5370 5384
5182 5181 5179 5177 5173 5171 5170 5172 5174 5174 5172 5169 5173 5173 5174 5172 5167 5167 5170 5169 5179 5183 5181 5206 5205 5217 5227 5233 5243 5253 5263 5276 5288 5302 5316 5328 5342 5356
5164 5164 5163 5161 5157 5153 5153 5155 5158 5157 5155 5152 5151 5153 5152 5154 5149 5151 5152 5154 5161 5164 5168 5177 5185 5195 5198 5205 5218 5229 5236 5244 5256 5267 5281 5296 5311 5326
5151 5150 5147 5148 5145 5140 5139 5142 5144 5145 5141 5136 5136 5136 5138 5141 5138 5135 5139 5140 5146 5152 5157 5153 5165 5167 5175 5186 5197 5203 5210 5215 5222 5233 5248 5261 5278 5295
5139 5138 5136 5135 5133 5131 5127 5126 5127 5132 5125 5122 5119 5119 5121 5125 5124 5124 5125 5123 5128 5137 5147 5137 5146 5143 5153 5170 5174 5182 5185 5192 5200 5207 5215 5228 5243 5259
5126 5126 5124 5119 5118 5118 5117 5115 5115 5114 5113 5109 5109 5109 5110 5111 5111 5112 5114 5112 5116 5124 5131 5128 5129 5129 5131 5142 5155 5166 5159 5172 5175 5183 5192 5202 5214 5223
5114 5113 5111 5106 5107 5107 5107 5105 5104 5103 5100 5099 5098 5099 5100 5103 5102 5102 5105 5106 5106 5109 5114 5115 5110 5110 5113 5122 5135 5143 5147 5152 5150 5162 5172 5182 5188 5197
5101 5099 5099 5100 5099 5099 5097 5092 5089 5087 5087 5086 5088 5090 5090 5092 5091 5090 5092 5093 5094 5098 5098 5099 5098 5101 5101 5106 5115 5125 5130 5144 5138 5145 5153 5159 5167 5173
5082 5082 5084 5085 5086 5087 5083 5078 5076 5075 5075 5075 5076 5078 5077 5077 5078 5079 5079 5082 5082 5091 5092 5092 5091 5091 5094 5099 5104 5114 5120 5130 5132 5136 5137 5144 5155 5164
5063 5064 5066 5067 5068 5067 5066 5066 5067 5066 5065 5064 5063 5066 5067 5068 5070 5070 5070 5074 5074 5079 5085 5086 5086 5085 5088 5094 5100 5105 5115 5121 5128 5132 5126 5137 5149 5159
5058 5058 5058 5058 5058 5058 5059 5059 5059 5056 5053 5052 5053 5053 5054 5057 5060 5062 5062 5063 5065 5072 5075 5078 5080 5082 5087 5097 5097 5105 5112 5115 5120 5130 5129 5133 5151 5160
5052 5054 5053 5053 5052 5051 5047 5045 5043 5043 5041 5040 5040 5043 5046 5049 5052 5055 5058 5059 5063 5066 5071 5073 5075 5076 5082 5097 5117 5102 5107 5118 5120 5129 5133 5136 5148 5166
5034 5035 5034 5033 5032 5032 5031 5030 5030 5030 5029 5031 5033 5035 5039 5041 5046 5051 5055 5057 5060 5065 5068 5072 5074 5076 5077 5093 5106 5113 5106 5113 5116 5122 5127 5136 5149 5154
5018 5018 5022 5020 5016 5016 5018 5019 5020 5020 5022 5023 5026 5030 5034 5037 5044 5049 5053 5059 5062 5066 5070 5077 5083 5084 5086 5089 5098 5110 5117 5117 5117 5117 5123 5129 5138 5138
5006 5010 5011 5011 5010 5010 5011 5012 5014 5016 5018 5021 5025 5029 5034 5038 5043 5048 5053 5055 5060 5064 5069 5078 5083 5082 5082 5086 5096 5102 5110 5116 5119 5120 5123 5127 5129 5137
4999 5001 5002 5004 5006 5006 5007 5008 5012 5016 5019 5023 5028 5033 5036 5040 5044 5048 5053 5057 5060 5064 5071 5076 5081 5084 5087 5089 5094 5099 5104 5109 5112 5115 5125 5128 5129 5133